Satellite: PO-28
Catalog number: 22829
Epoch time:      08197.92520654
Element set:    0995
Inclination:      098.3644 deg
RA of node:       158.8664 deg
Eccentricity:    0.0010306
Arg of perigee:   139.9805 deg
Mean anomaly:     220.2088 deg
Mean motion:   14.30192869 rev/day
Decay rate:       -4.1e-07 rev/day^2
Epoch rev:           77223
Checksum:              334

Satellite: GO-32
Catalog number: 25397
Epoch time:      08198.70981132
Element set:     648
Inclination:      098.3620 deg
RA of node:       232.4116 deg
Eccentricity:    0.0001931
Arg of perigee:   127.7841 deg
Mean anomaly:     232.3519 deg
Mean motion:   14.23145443 rev/day
Decay rate:       -7.5e-07 rev/day^2
Epoch rev:           52041
Checksum:              289

Satellite: NO-44
Catalog number: 26931
Epoch time:      08198.53067293
Element set:    0929
Inclination:      067.0513 deg
RA of node:       209.0631 deg
Eccentricity:    0.0007256
Arg of perigee:   269.1232 deg
Mean anomaly:     090.9037 deg
Mean motion:   14.29529019 rev/day
Decay rate:       1.80e-06 rev/day^2
Epoch rev:           35460
Checksum:              305

Satellite: SO-50
Catalog number: 27607
Epoch time:      08199.45594510
Element set:     653
Inclination:      064.5604 deg
RA of node:       321.7119 deg
Eccentricity:    0.0086245
Arg of perigee:   273.5881 deg
Mean anomaly:     085.5351 deg
Mean motion:   14.71368018 rev/day
Decay rate:       -8.3e-07 rev/day^2
Epoch rev:           29942
Checksum:              324

Satellite: CO-55
Catalog number: 27844
Epoch time:      08198.66652728
Element set:    0353
Inclination:      098.7149 deg
RA of node:       206.5227 deg
Eccentricity:    0.0010884
Arg of perigee:   035.5371 deg
Mean anomaly:     324.6532 deg
Mean motion:   14.20587945 rev/day
Decay rate:        2.6e-07 rev/day^2
Epoch rev:           26162
Checksum:              327

Satellite: CO-57
Catalog number: 27848
Epoch time:      08198.52769979
Element set:    0303
Inclination:      098.7163 deg
RA of node:       205.4766 deg
Eccentricity:    0.0010598
Arg of perigee:   038.9290 deg
Mean anomaly:     321.2642 deg
Mean motion:   14.20396476 rev/day
Decay rate:        1.6e-07 rev/day^2
Epoch rev:           26157
Checksum:              346

Satellite: AO-51
Catalog number: 28375
Epoch time:      08199.33151823
Element set:     150
Inclination:      098.0692 deg
RA of node:       222.2042 deg
Eccentricity:    0.0085285
Arg of perigee:   061.3066 deg
Mean anomaly:     299.6663 deg
Mean motion:   14.40613420 rev/day
Decay rate:       -5.0e-08 rev/day^2
Epoch rev:           21274
Checksum:              288

Satellite: CO-56
Catalog number: 28941
Epoch time:      08199.38894990
Element set:     226
Inclination:      098.1097 deg
RA of node:       314.2648 deg
Eccentricity:    0.0160693
Arg of perigee:   291.2726 deg
Mean anomaly:     067.1593 deg
Mean motion:   15.58203573 rev/day
Decay rate:     1.1231e-04 rev/day^2
Epoch rev:           13474
Checksum:              343

Satellite: CP4
Catalog number: 31122
Epoch time:      08198.93632733
Element set:    0390
Inclination:      098.0415 deg
RA of node:       263.4246 deg
Eccentricity:    0.0084557
Arg of perigee:   235.6351 deg
Mean anomaly:     123.6753 deg
Mean motion:   14.55142825 rev/day
Decay rate:       5.50e-06 rev/day^2
Epoch rev:           06640
Checksum:              294

Satellite: CP3
Catalog number: 31128
Epoch time:      08198.82986249
Element set:    0383
Inclination:      098.0398 deg
RA of node:       261.0154 deg
Eccentricity:    0.0101665
Arg of perigee:   242.6451 deg
Mean anomaly:     116.4367 deg
Mean motion:   14.51960030 rev/day
Decay rate:       -4.8e-07 rev/day^2
Epoch rev:           06623
Checksum:              302

/EX
SB KEPS @ AMSAT  $ORB08199.W
Orbital Elements  08199.WEATHER

HR AMSAT ORBITAL ELEMENTS FOR WEATHER SATELLITES
FROM WA5QGD FORT WORTH,TX July 17, 2008
Send Subscribe/unsubscribe to KEPS at 
http://www.amsat.org/mailman/listinfo/keps
BID: ORB08199.W
TO ALL RADIO AMATEURS BT

Satellite: NOAA-10
Catalog number: 16969
Epoch time:      08198.94673604
Element set:    0205
Inclination:      098.7213 deg
RA of node:       220.8551 deg
Eccentricity:    0.0013260
Arg of perigee:   093.6092 deg
Mean anomaly:     266.6603 deg
Mean motion:   14.27364341 rev/day
Decay rate:        7.7e-07 rev/day^2
Epoch rev:           13568
Checksum:              310

Satellite: NOAA-11
Catalog number: 19531
Epoch time:      08199.36391398
Element set:     239
Inclination:      098.7982 deg
RA of node:       288.2690 deg
Eccentricity:    0.0011311
Arg of perigee:   346.6172 deg
Mean anomaly:     013.4677 deg
Mean motion:   14.14874117 rev/day
Decay rate:       2.37e-06 rev/day^2
Epoch rev:            2217
Checksum:              318

Satellite: NOAA-12
Catalog number: 21263
Epoch time:      08199.45325105
Element set:     756
Inclination:      098.7659 deg
RA of node:       201.4023 deg
Eccentricity:    0.0013223
Arg of perigee:   041.3993 deg
Mean anomaly:     318.8197 deg
Mean motion:   14.25539435 rev/day
Decay rate:       1.34e-06 rev/day^2
Epoch rev:           89270
Checksum:              305

